Flag for Canada

Past Weather in Cranbrook, British Columbia, Canada — Yesterday and Last 2 Weeks

Now
37 °F

Passing clouds.


Feels Like: 35 °F
Forecast: 59 / 36 °F
Wind: 3 mph from Southwest

Location: Cranbrook
Current Time: Sep 27, 2020 at 2:40:00 am
Latest Report: Sep 27, 2020 at 1:00 am
Visibility: 25 mi
Pressure30.18 "Hg(26.89 "Hg at 933m altitude)
Humidity: 93%
Dew Point: 36 °F
Location of CranbrookLocation

Past Weather in Cranbrook — Graph

°F

Cranbrook Temperature Yesterday

Maximum temperature yesterday: 57 °F (at 2:00 pm)
Minimum temperature yesterday: 36 °F (at 3:00 am)
Average temperature yesterday: 47 °F

High & Low Weather Summary for the Past Weeks

 TemperatureHumidityPressure
High84 °F (Sep 12, 4:00 pm)100% (Sep 25, 3:00 am)30.24 "Hg (Sep 25, 3:00 am)
Low36 °F (Sep 26, 3:00 am)19% (Sep 12, 4:00 pm)29.64 "Hg (Sep 24, 3:00 am)
Average58 °F57%29.96 "Hg
* Reported Sep 12 1:00 am — Sep 27 1:00 am, Cranbrook. Weather by CustomWeather, © 2020

Note: Actual official high and low records may vary slightly from our data, if they occured in-between our weather recording intervals... More about our weather records

Cranbrook Weather History for the Previous 24 Hours

Scroll right to see more
 ConditionsComfort  
Time TempWeatherWind HumidityBarometerVisibility
1:00 am
Sun, Sep 27
37 °FPassing clouds.3 mph93%30.18 "Hg25 mi
12:00 am43 °FPassing clouds.3 mph76%30.15 "Hg25 mi
11:00 pm
Sat, Sep 26
43 °FPassing clouds.2 mph76%30.14 "Hg25 mi
10:00 pm45 °FPassing clouds.3 mph71%30.12 "Hg25 mi
9:00 pm45 °FPassing clouds.3 mph71%30.10 "Hg25 mi
8:00 pm48 °FScattered showers. Broken clouds.10 mph58%30.07 "Hg25 mi
7:00 pm54 °FBroken clouds.12 mph44%30.04 "Hg25 mi
6:00 pm55 °FBroken clouds.2 mph44%30.02 "Hg25 mi
5:09 pm52 °FScattered showers. Broken clouds.6 mph62%30.00 "Hg25 mi
4:45 pm48 °FSprinkles. Broken clouds.15 mph71%30.01 "Hg25 mi
4:00 pm57 °FScattered showers. Broken clouds.6 mph39%29.96 "Hg25 mi
3:00 pm57 °FScattered showers. Broken clouds.13 mph36%29.96 "Hg25 mi
2:00 pm57 °FScattered clouds.17 mph44%29.95 "Hg25 mi
1:00 pm55 °FBroken clouds.8 mph44%29.96 "Hg25 mi
12:00 pm54 °FPartly sunny.14 mph54%29.96 "Hg25 mi
11:00 am50 °FScattered clouds.7 mph67%29.97 "Hg25 mi
10:00 am48 °FScattered clouds.7 mph66%29.94 "Hg25 mi
9:00 am45 °FScattered clouds.5 mph81%29.93 "Hg25 mi
8:00 am39 °FPassing clouds.No wind87%29.91 "Hg25 mi
7:00 am39 °FPassing clouds.No wind87%29.89 "Hg25 mi
6:00 am37 °FPassing clouds.2 mph93%29.86 "Hg25 mi
5:00 am39 °FPassing clouds.3 mph93%29.83 "Hg25 mi
4:00 am39 °FPassing clouds.6 mph100%29.80 "Hg25 mi
3:00 am36 °FPassing clouds.8 mph93%29.79 "Hg25 mi
2:00 am39 °FPassing clouds.2 mph93%29.75 "Hg25 mi
Weather by CustomWeather, © 2020

See weather overview